Location: Ignac�w
(51.3733°N, 17.8620°E)
Time: 09:22:44
(UTC+00:00)

Daily predictions for brighter satellites

Satellite Brightness Start Highest point End
(mag) Time Altitude Azimuth Time Altitude Azimuth Time Altitude Azimuth
ATLAS 3B R/B 4.1 19:30:05 10° NW 19:36:09 34° NNE 19:42:20 10° E
Cosmos 304 Rocket 4.2 19:34:01 10° S 19:38:29 41° ESE 19:43:00 10° NE
STARLINK-1203 3.7 19:35:33 10° SW 19:39:43 63° SSE 19:43:53 10° ENE
STARLINK-1216 3.6 19:35:56 10° SW 19:40:02 63° SSE 19:44:08 10° ENE
ISS -1.6 19:38:33 10° W 19:40:47 17° SW 19:43:00 10° S
CZ-2C R/B 3.4 19:36:00 10° N 19:41:33 63° WNW 19:47:05 10° SSW
STARLINK-1205 3.9 19:38:36 10° W 19:42:45 74° N 19:46:55 10° ENE
STARLINK-1130 (DARKSAT) 3.7 19:39:14 10° WNW 19:43:22 66° SSW 19:47:28 10° ESE
STARLINK-1237 3.6 19:40:54 10° WSW 19:45:01 66° SSE 19:49:08 10° ENE
STARLINK-1218 3.9 19:43:36 10° W 19:47:45 73° N 19:51:55 10° ENE
STARLINK-1084 3.8 19:44:13 10° WNW 19:48:20 63° SSW 19:52:25 10° SE
Cosmos 1674 Rocket 3.7 19:44:24 10° S 19:48:42 61° E 19:53:05 10° NNE
Meteor 2-4 Rocket 4.1 19:43:40 10° SSW 19:48:58 65° WNW 19:54:20 10° N
STARLINK-1202 3.6 19:45:52 10° WSW 19:49:59 69° SSE 19:54:07 10° ENE
NOSS 2-2 (E) 3.9 19:47:36 10° S 19:50:49 31° ESE 19:54:26 10° ENE
Cosmos 1378 Rocket 3.8 19:47:23 10° S 19:51:39 51° E 19:55:54 10° NNE
EXPRESS MD2 4.1 19:48:51 10° SSW 19:51:51 34° SE 19:57:07 10° E
Cosmos 1833 Rocket 4.3 19:47:39 10° NW 19:52:27 30° WSW 19:57:15 10° SSW
SL-27 R/B 4.1 19:49:25 10° N 19:52:29 25° NE 19:55:29 10° ESE
STARLINK-1254 3.9 19:48:35 10° W 19:52:44 72° N 19:56:54 10° ENE
STARLINK-1098 3.8 19:49:13 10° WNW 19:53:18 60° SSW 19:57:22 10° SE
Cosmos 1766 4.1 19:49:54 10° N 19:53:38 37° ENE 19:57:22 10° SE
Cosmos 2297 3.9 19:50:13 10° S 19:55:44 54° ESE 20:01:19 10° NE
Cosmos 1943 Rocket 3.2 19:51:42 10° SSE 19:56:18 27° ESE 20:00:55 10° NE
Cosmos 1900 4.5 19:51:49 10° NW 19:56:53 77° NE 20:01:58 10° SE
STARLINK-1231 3.9 19:53:34 10° W 19:57:42 71° N 20:01:52 10° E
STARLINK-1123 3.9 19:54:11 10° WNW 19:58:15 56° SSW 20:02:19 10° SE
Cosmos 2082 Rocket 3.2 19:53:56 10° NW 19:59:17 42° WSW 20:04:35 10° S
STARLINK-1246 3.6 19:55:48 10° WSW 19:59:57 76° SSE 20:04:06 10° ENE
IGS 5A 3.6 19:56:16 10° S 20:00:25 76° WSW 20:04:36 10° NNW
Cosmos 1452 Rocket 3.8 19:57:07 10° SSW 20:02:24 73° WNW 20:07:42 10° NNE
Cosmos 332 Rocket 3.9 19:57:43 10° SSW 20:02:38 86° WNW 20:07:34 10° NNE
STARLINK-1232 4.0 19:58:34 10° W 20:02:43 70° N 20:06:52 10° E
BREEZE-M DEB 3.9 20:00:35 10° S 20:02:45 22° SE 20:06:44 10° E
STARLINK-1097 3.9 19:59:12 10° WNW 20:03:14 53° SSW 20:07:07 11° SE
Landsat 7 4.0 19:58:40 10° S 20:03:25 74° WSW 20:08:13 10° NNW
STARLINK-1224 3.6 20:00:46 10° WSW 20:04:55 79° SSE 20:09:04 10° ENE
Meteor 1-23 Rocket 4.3 20:01:20 10° S 20:06:59 71° E 20:12:37 10° NNE
STARLINK-1208 4.0 20:03:33 10° W 20:07:41 70° N 20:11:50 10° E
STARLINK-1099 4.0 20:04:10 10° WNW 20:08:12 50° SSW 20:11:54 12° SE
Cosmos 1461 2.9 20:04:57 10° SSW 20:09:07 76° SE 20:13:32 10° NE
STARLINK-1225 3.6 20:05:45 10° WSW 20:09:54 83° SSE 20:14:04 10° ENE
SAR-Lupe-2 3.5 20:06:18 10° NNE 20:09:56 88° ESE 20:13:32 10° SSW
Cosmos 1975 Rocket 4.1 20:07:29 11° SSE 20:11:11 31° E 20:15:04 10° NNE
Cosmos 2369 Rocket 3.2 20:07:33 10° SSE 20:12:12 27° ESE 20:16:51 10° NE
STARLINK-1271 4.0 20:08:34 10° W 20:12:42 69° N 20:16:51 10° E
STARLINK-1104 4.1 20:09:09 10° WNW 20:13:09 47° SSW 20:16:40 13° SE
STARLINK-1212 3.1 20:11:35 10° WNW 20:14:42 69° N 20:17:48 10° E
STARLINK-1230 3.6 20:10:43 10° WSW 20:14:52 86° SSE 20:19:02 10° ENE
STARLINK-1105 3.1 20:12:03 10° WNW 20:15:10 69° N 20:18:15 10° E
NOSS 2-2 (C) 3.5 20:11:56 10° SSW 20:15:19 41° SE 20:19:08 10° NE
STARLINK-1247 3.1 20:12:56 10° WNW 20:16:03 70° N 20:19:10 10° E
STARLINK-1227 3.1 20:13:25 10° WNW 20:16:31 70° N 20:19:38 10° E
STARLINK-1226 3.1 20:14:17 10° WNW 20:17:24 70° N 20:20:31 10° E
STARLINK-1154 4.0 20:13:33 10° W 20:17:42 69° N 20:21:51 10° E
STARLINK-1144 4.1 20:14:09 10° WNW 20:18:07 45° SSW 20:21:28 14° SE
STARLINK-1215 3.1 20:15:11 10° WNW 20:18:18 71° N 20:21:25 10° E
SPOT 5 3.1 20:14:18 10° SSE 20:19:29 85° ENE 20:24:53 10° NNW
ATLAS 2AS CENTAUR R/B 4.1 20:13:25 10° SSE 20:19:30 25° ESE 20:25:35 10° ENE
STARLINK-1243 3.6 20:15:42 10° WSW 20:19:51 88° S 20:24:02 10° ENE
NOSS 3-2 (A) 4.1 20:12:37 10° NW 20:19:59 87° SW 20:27:48 12° SE
STARLINK-1217 3.1 20:17:00 10° WNW 20:20:07 72° N 20:23:15 10° E
STARLINK-1229 3.1 20:17:54 10° WNW 20:21:02 72° N 20:24:09 10° E
Meteor 1-22 Rocket 4.4 20:15:39 10° N 20:21:36 71° ENE 20:26:47 13° SSE
OPS 6432 4.4 20:18:50 10° NW 20:21:55 71° SW 20:24:59 15° SE
STARLINK-1270 3.1 20:18:48 10° WNW 20:21:56 72° N 20:25:03 10° E
STARLINK-1197 4.0 20:18:31 10° W 20:22:40 69° N 20:26:49 10° E
STARLINK-1103 4.2 20:19:08 10° WNW 20:23:04 42° SSW 20:26:14 15° SE
STARLINK-1189 3.0 20:20:36 10° WNW 20:23:44 73° NNE 20:26:51 10° E
STARLINK-1188 3.0 20:21:31 10° WNW 20:24:38 74° N 20:27:46 10° E
ERS-1 Rocket 3.1 20:19:40 10° S 20:24:42 77° WSW 20:29:47 10° NNW
STARLINK-1236 3.6 20:20:40 10° WSW 20:24:49 89° NNW 20:29:00 10° ENE
STARLINK-1187 2.9 20:22:35 10° WNW 20:25:42 77° NNE 20:28:48 10° E
STARLINK-1191 3.0 20:23:57 10° WNW 20:27:04 75° NNE 20:30:10 10° E
STARLINK-1198 4.0 20:23:30 10° W 20:27:39 69° N 20:31:48 10° E
STARLINK-1101 4.3 20:24:08 10° WNW 20:28:01 39° SSW 20:31:01 15° SSE
STARLINK-1221 3.0 20:24:54 10° WNW 20:28:01 75° NNE 20:31:07 10° E
STARLINK-1222 3.0 20:25:45 10° WNW 20:28:52 76° N 20:31:58 10° E
Okean 2 3.8 20:25:56 13° SSE 20:29:28 48° E 20:33:30 10° NNE
STARLINK-1214 3.0 20:26:39 10° WNW 20:29:46 76° N 20:32:52 10° E
Cosmos 1066 Rocket 4.2 20:24:43 10° SSW 20:30:06 81° WNW 20:35:30 10° N
USA 238 DEB 3.9 20:24:42 10° NW 20:31:52 78° SW 20:38:25 14° SE
USA 238 3.9 20:24:48 10° NW 20:31:58 78° SW 20:38:32 14° SE
Cosmos 1953 4.3 20:29:22 10° NNE 20:32:07 18° ENE 20:34:50 10° ESE
STARLINK-1199 3.9 20:28:31 10° W 20:32:40 69° N 20:36:48 10° E
STARLINK-1102 4.4 20:29:08 10° WNW 20:32:59 37° SW 20:35:48 16° SSE
Cosmos 968 Rocket 4.0 20:28:11 10° NNW 20:33:14 50° ENE 20:37:31 14° SE
Okean 1 Rocket 3.8 20:28:58 10° NNW 20:33:19 50° W 20:37:35 10° S
Cosmos 1805 3.4 20:29:45 10° NNW 20:33:41 73° W 20:37:07 13° S
Cosmos 1470 3.8 20:30:18 10° N 20:33:50 33° ENE 20:36:30 15° SE
STARLINK-1228 3.1 20:30:43 10° WNW 20:34:14 89° NNE 20:37:42 10° ESE
STARLINK-1269 3.7 20:30:39 10° WSW 20:34:48 84° NNW 20:38:58 10° ENE
Resurs 01 Rocket 4.1 20:32:13 10° SW 20:35:09 17° W 20:38:06 10° NW
Cosmos 2278 Rocket 4.1 20:30:40 10° WSW 20:35:49 34° NW 20:41:00 10° NNE
Nadezhda 4 Rocket 4.1 20:30:24 10° SSW 20:36:33 80° W 20:42:42 10° N
STARLINK-1235 2.9 20:34:20 10° WNW 20:37:35 89° N 20:40:37 12° ESE
STARLINK-1210 3.9 20:33:30 10° W 20:37:38 69° N 20:41:47 10° E
STARLINK-1111 4.5 20:34:08 10° W 20:37:55 35° SW 20:40:34 17° SSE
Cosmos 1455 Rocket 3.2 20:34:43 10° N 20:39:03 61° ENE 20:42:18 17° SSE
STARLINK-1200 3.7 20:35:37 10° WSW 20:39:46 82° NNW 20:43:56 10° ENE
STARLINK-1219 3.9 20:38:28 10° W 20:42:37 70° N 20:46:46 10° E
STARLINK-1192 3.7 20:40:37 10° W 20:44:46 80° NNW 20:48:56 10° ENE
ATLAS CENTAUR R/B 3.3 20:45:31 10° NW 20:46:49 16° N 20:48:11 10° NE
Cosmos 1758 4.1 20:43:07 10° N 20:46:58 40° ENE 20:49:40 18° SE
STARLINK-1211 3.9 20:43:29 10° W 20:47:38 71° N 20:51:47 10° E
Terra 1.9 20:44:22 14° S 20:48:23 74° WSW 20:53:11 10° NNW
SL-4 R/B 3.3 20:45:16 10° SSW 20:49:16 27° SE 20:53:20 10° E
Cosmos 1110 Rocket 4.3 20:44:09 10° SSW 20:49:19 71° WNW 20:54:31 10° NNE
STARLINK-1244 3.8 20:45:35 10° W 20:49:45 78° N 20:53:54 10° ENE
Abrixas rocket 4.1 20:50:00 10° WSW 20:51:28 13° SSW 20:51:50 13° SSW
CARTOSAT-1 4.4 20:47:49 11° S 20:51:46 43° W 20:55:55 10° NNW
Cosmos 1842 3.3 20:48:51 17° S 20:51:47 63° E 20:55:38 10° NNE
STARLINK-1245 3.9 20:48:27 10° W 20:52:37 71° N 20:56:45 10° E
Cosmos 1503 Rocket 4.5 20:47:51 10° NNW 20:53:04 54° ENE 20:57:15 16° SE
ERBS 4.2 20:50:59 10° WNW 20:54:02 33° N 20:57:06 10° ENE
STARLINK-1138 3.8 20:50:35 10° W 20:54:44 76° N 20:58:54 10° ENE
STARLINK-1234 2.9 20:52:06 10° WNW 20:55:23 75° SSW 20:57:44 18° ESE
STARLINK-1233 3.8 20:53:25 10° WNW 20:57:34 72° N 21:01:43 10° E
STARLINK-1143 3.8 20:55:33 10° W 20:59:41 75° N 21:03:52 10° ENE
STARLINK-1209 2.9 20:58:04 10° WNW 21:01:22 68° SSW 21:03:26 20° ESE
STARLINK-1204 3.8 20:58:25 10° WNW 21:02:34 73° N 21:06:43 10° E
STARLINK-1241 3.8 21:00:35 10° W 21:04:44 73° N 21:08:53 10° ENE
Cosmos 1733 4.0 21:03:04 10° NNW 21:06:44 45° W 21:09:32 16° SSW
STARLINK-1238 3.8 21:03:25 10° WNW 21:07:35 75° N 21:11:44 10° E
STARLINK-1239 3.9 21:05:33 10° W 21:09:42 72° N 21:13:51 10° ENE
Cosmos 1536 Rocket 4.3 21:08:36 21° SE 21:10:57 37° E 21:14:59 10° NNE
Meteor 1-21 4.2 21:07:51 16° S 21:12:23 72° E 21:17:59 10° NNE
Cosmos 1354 Rocket 4.2 21:07:06 10° NNW 21:12:24 67° ENE 21:16:12 19° SE
STARLINK-1201 3.8 21:08:24 10° WNW 21:12:33 76° N 21:16:43 10° E
COSMOS 2455 3.9 21:09:44 19° SSE 21:12:40 27° ESE 21:17:37 10° NE
JB-3 4.4 21:09:38 10° NNE 21:13:48 74° E 21:16:37 20° S
USA 215 3.5 21:07:51 10° ESE 21:14:23 75° NNE 21:20:56 10° WNW
Cosmos 1486 Rocket 4.2 21:09:18 10° NNW 21:14:35 68° WSW 21:18:13 20° S
STARLINK-1240 3.9 21:10:32 10° W 21:14:40 71° N 21:18:50 10° E
Cosmos 1833 4.2 21:09:29 10° NNW 21:15:11 86° ENE 21:19:13 20° SSE
Cosmos 1544 Rocket 3.5 21:11:29 10° NNW 21:15:50 81° W 21:18:39 22° S
Cosmos 1302 Rocket 4.1 21:10:53 10° SSW 21:16:12 85° WNW 21:21:32 10° NNE
Cosmos 1271 Rocket 3.0 21:14:22 24° SSE 21:16:29 53° E 21:20:20 10° NNE
MTI 4.1 21:13:36 10° N 21:16:43 61° WNW 21:18:58 17° SSW
Cosmos 2297 Rocket 4.3 21:13:07 10° NNW 21:17:24 21° NE 21:21:40 10° E
STARLINK-1206 3.7 21:13:24 10° WNW 21:17:34 78° N 21:21:43 10° E
Spot 4 4.1 21:14:22 20° SE 21:17:39 62° ENE 21:22:26 10° N
Cosmos 1242 Rocket 2.5 21:15:26 22° S 21:17:41 77° E 21:21:24 10° NNE
STARLINK-1203 3.9 21:15:22 10° W 21:19:34 71° N 21:23:47 10° E
STARLINK-1216 3.9 21:15:31 10° W 21:19:39 70° N 21:23:48 10° E
STARLINK-60 3.5 21:20:10 28° S 21:21:07 34° SSE 21:24:04 10° E
Cosmos 1092 Rocket 4.4 21:16:06 10° SSW 21:22:09 60° WNW 21:28:16 10° N
STARLINK-1205 3.7 21:18:22 10° WNW 21:22:32 80° NNE 21:26:41 10° E
NOSS 2-2 (D) 4.0 21:20:10 10° WSW 21:23:45 56° NW 21:28:01 10° NE
CENTAUR R/B 3.3 21:16:32 10° NW 21:24:25 70° SW 21:31:08 19° SSE
STARLINK-1237 3.9 21:20:30 10° W 21:24:39 70° N 21:28:48 10° E
Lacrosse 4 Rocket 4.4 21:24:20 10° N 21:26:21 13° NNE 21:28:20 10° NE
Cosmos 1707 2.9 21:24:35 26° SSE 21:26:34 55° E 21:30:23 10° NNE
STARLINK-1218 3.7 21:23:22 10° WNW 21:27:32 82° NNE 21:31:42 10° ESE
SL-27 R/B 3.8 21:24:24 10° NW 21:27:38 31° WSW 21:29:28 19° SSW
ATLAS 3B R/B 2.8 21:21:01 10° NW 21:27:49 77° NE 21:33:56 14° SE
NOSS 3-2 (C) 4.3 21:22:17 10° NW 21:29:35 60° SW 21:35:37 20° SSE
STARLINK-1202 3.9 21:25:30 10° W 21:29:39 69° N 21:33:48 10° E
Cosmos 1726 2.5 21:27:21 10° N 21:31:02 53° ENE 21:32:50 26° SE
Meteor 1-16 Rocket 4.4 21:26:50 10° N 21:32:19 59° ENE 21:35:51 21° SSE
STARLINK-1254 3.6 21:28:20 10° WNW 21:32:30 84° NNE 21:36:40 10° ESE
ALOS 2 3.4 21:30:24 20° SE 21:33:07 43° ENE 21:37:18 10° N
Cosmos 1867 3.6 21:29:05 10° NW 21:34:33 75° SW 21:38:07 22° SSE
COSMOS 2487 2.6 21:31:58 10° NNW 21:35:26 62° ENE 21:37:03 28° SE
STARLINK-1231 3.6 21:33:19 10° WNW 21:37:28 87° N 21:41:38 10° ESE
STARLINK-1246 3.9 21:35:30 10° W 21:39:39 69° N 21:43:47 10° E
Cosmos 1943 Rocket 2.7 21:34:09 10° SW 21:39:39 61° NW 21:45:15 10° NNE
Cosmos 1992 Rocket 4.0 21:36:08 20° S 21:39:43 67° ESE 21:44:54 10° NNE
NOSS 3-4 (A) 3.6 21:36:32 16° SSW 21:41:12 53° SE 21:47:22 10° NE
NOSS 3-4 (C) 3.6 21:36:40 16° SSW 21:41:18 53° SE 21:47:29 10° NE
SeaSat 1 2.7 21:36:49 10° NE 21:41:39 52° ESE 21:44:35 23° S
STARLINK-1232 3.6 21:38:18 10° WNW 21:42:28 89° N 21:46:38 10° ESE
EO 1 Del DPAF 3.1 21:38:44 10° NNE 21:42:32 78° ESE 21:44:29 27° S
STARLINK-1224 3.9 21:40:29 10° W 21:44:38 69° N 21:48:46 10° E
STARLINK-1208 3.5 21:43:16 10° WNW 21:47:26 88° SSW 21:51:25 11° ESE
Cosmos 2315 Rocket 4.3 21:41:49 10° N 21:47:57 57° ENE 21:52:08 21° SSE
STARLINK-1225 3.9 21:45:29 10° W 21:49:38 69° N 21:53:46 10° E
STARLINK-1212 3.3 21:47:29 10° W 21:50:26 41° SSW 21:50:47 39° S
Meteor 2-10 3.9 21:45:41 10° NNW 21:50:45 78° W 21:53:43 25° S
STARLINK-1105 3.3 21:47:57 10° W 21:50:54 41° SSW 21:51:13 39° SSW
STARLINK-29 4.0 21:51:41 29° ESE 21:51:41 29° ESE 21:53:56 10° E
STARLINK-1247 3.3 21:48:50 10° W 21:51:48 40° SSW 21:52:06 39° SSW
STARLINK-1227 3.3 21:49:19 10° W 21:52:16 40° SSW 21:52:32 39° SSW
STARLINK-1271 3.5 21:48:17 10° WNW 21:52:26 85° SSW 21:56:14 12° ESE
Cosmos 292 Rocket 4.1 21:48:19 12° SW 21:52:46 66° WNW 21:57:38 10° NNE
STARLINK-1226 3.3 21:50:11 10° W 21:53:08 40° SSW 21:53:24 39° SSW
BREEZE-M DEB (TANK) 3.0 21:42:40 10° WSW 21:53:10 69° S 21:56:22 10° E
BREEZE-M DEB (TANK) 2.9 21:50:06 10° W 21:53:38 56° SSW 21:57:52 10° ESE
S3M 4.1 21:47:51 10° NNW 21:54:00 74° W 21:58:10 22° S
STARLINK-1215 3.3 21:51:05 10° W 21:54:02 39° SSW 21:54:16 38° SSW
STARLINK-1230 3.9 21:50:28 10° W 21:54:36 69° N 21:58:45 10° E
Cosmos 2227 Rocket 3.9 21:49:47 10° NNW 21:54:42 29° NE 21:59:36 10° ESE
RESURS DK-1 3.8 21:53:56 21° SE 21:54:48 22° ESE 21:58:01 10° ENE
STARLINK-1217 3.4 21:52:54 10° W 21:55:50 38° SSW 21:56:00 38° SSW
Cosmos 2369 Rocket 2.6 21:50:13 10° SW 21:55:50 64° NW 22:01:28 10° NNE
STARLINK-1229 3.4 21:53:49 10° W 21:56:45 38° SSW 21:56:54 37° SSW
STARLINK-1154 3.5 21:53:15 10° WNW 21:57:26 82° SSW 22:01:00 14° ESE
STARLINK-1270 3.4 21:54:42 10° W 21:57:38 37° SSW 21:57:45 37° SSW
STARLINK-1189 3.5 21:56:31 10° W 21:59:26 36° SSW 21:59:29 36° SSW
STARLINK-1243 3.9 21:55:28 10° W 21:59:37 70° N 22:03:45 10° E
STARLINK-1188 3.5 21:57:25 10° W 22:00:20 36° SSW 22:00:22 36° SSW
Cosmos 1340 Rocket 2.8 21:56:33 10° NNW 22:00:37 77° W 22:02:31 30° S
STARLINK-1187 3.7 21:58:34 10° W 22:01:14 32° SW 22:01:14 32° SW
ATLAS CENTAUR R/B 1.6 21:59:35 27° S 22:01:39 53° SE 22:05:39 10° NE
STARLINK-1197 3.5 21:58:13 10° WNW 22:02:23 79° SSW 22:05:46 15° ESE
Aureole 3 2.6 21:59:12 10° N 22:02:31 78° E 22:03:24 42° SSE
Cosmos 1626 4.1 22:01:28 15° ESE 22:02:45 17° E 22:05:13 10° NE
STARLINK-1191 3.6 21:59:53 10° W 22:02:39 34° SW 22:02:39 34° SW
Thor Agena Rocket 3.8 21:57:56 10° NNE 22:03:15 73° WNW 22:07:11 18° SSW
STARLINK-1221 3.6 22:00:50 10° W 22:03:34 34° SW 22:03:34 34° SW
STARLINK-1222 3.7 22:01:42 10° W 22:04:23 33° SW 22:04:23 33° SW
STARLINK-1236 3.9 22:00:26 10° W 22:04:35 70° N 22:08:44 10° E
STARLINK-1214 3.7 22:02:35 10° W 22:05:15 33° SW 22:05:15 33° SW
Cosmos 1025 Rocket 3.4 22:02:57 21° SSW 22:05:41 58° WNW 22:09:58 10° N
Cosmos 1908 3.4 22:01:55 10° N 22:05:43 62° ENE 22:07:21 31° SSE
STARLINK-1198 3.5 22:03:12 10° WNW 22:07:20 75° SSW 22:10:32 16° ESE
EXPRESS MD2 4.4 22:02:56 10° W 22:07:25 80° S 22:17:09 10° E
Meteor 2-19 Rocket 4.4 22:03:37 23° S 22:07:40 82° E 22:13:48 10° NNE
Cosmos 1953 2.7 22:04:58 10° NNW 22:08:52 53° W 22:10:41 28° SSW
BREEZE M DEB (TANK) 2.6 22:06:47 10° W 22:08:33 34° WSW 22:08:33 34° WSW
Cosmos 1656 Rocket 3.7 22:04:50 16° SSW 22:09:23 87° WNW 22:14:59 10° NNE
ATLAS 2AS CENTAUR R/B 3.0 22:01:34 10° SW 22:09:34 81° SE 22:17:30 10° NE
Cosmos 1470 4.4 22:06:35 10° NW 22:09:46 24° W 22:11:51 16° SW
BREEZE-M DEB (TANK) 4.3 22:00:21 10° WNW 22:10:09 36° SW 22:11:56 26° S
STARLINK-1228 4.2 22:08:09 10° W 22:11:08 28° SW 22:11:08 28° SW
STARLINK-1199 3.5 22:08:12 10° WNW 22:12:20 72° SSW 22:15:20 18° ESE
STARLINK-1235 4.3 22:10:54 10° W 22:13:12 25° SW 22:13:12 25° SW
STARLINK-1269 3.8 22:10:25 10° WNW 22:14:34 72° N 22:18:43 10° E
Cosmos 2292 Rocket 2.8 22:13:24 35° S 22:14:48 89° E 22:17:57 10° N
STARLINK-1210 3.5 22:13:10 10° WNW 22:17:18 69° SSW 22:20:06 20° SE
FALCON 9 R/B 4.5 22:19:35 13° SE 22:19:35 13° SE 22:22:15 10° ESE
KORONAS-FOTON 4.0 22:17:21 34° SSE 22:18:47 58° E 22:22:36 10° NNE
STARLINK-1200 3.8 22:15:23 10° WNW 22:19:32 73° N 22:23:42 10° E
Cosmos 1655 Rocket 4.2 22:15:01 19° SSW 22:19:40 66° WNW 22:25:56 10° N
SL-4 R/B 1.6 22:20:18 36° W 22:20:18 36° W 22:22:08 10° NNW
Cosmos 1777 Rocket 4.0 22:14:56 10° NNW 22:20:13 89° ENE 22:23:19 25° SSE
STARLINK-1219 3.5 22:18:08 10° WNW 22:22:15 65° SSW 22:24:52 21° SE
ATLAS 5 CENTAUR R/B 0.9 22:21:46 21° SW 22:23:50 79° SE 22:25:56 10° NE
STARLINK-1192 3.8 22:20:23 10° WNW 22:24:33 74° N 22:28:42 10° E
Cosmos 2228 2.9 22:22:23 10° N 22:26:40 88° W 22:28:36 32° S
STARLINK-52 3.1 22:26:27 47° S 22:26:44 49° SSE 22:29:52 10° ENE
Terra 4.3 22:25:45 10° W 22:27:00 11° W 22:28:16 10° WNW
Cosmos 1892 Rocket 4.2 22:25:06 27° SSE 22:27:01 45° E 22:31:12 10° NNE
STARLINK-1211 3.6 22:23:08 10° WNW 22:27:15 62° SSW 22:29:40 23° SE
Cosmos 1726 Rocket 3.5 22:23:06 10° N 22:27:26 79° ENE 22:29:30 30° SSE
SL-4 R/B 2.3 22:23:45 10° WSW 22:28:34 70° SSE 22:33:22 10° ENE
STARLINK-1244 3.8 22:25:22 10° WNW 22:29:32 76° N 22:33:41 10° E
ERBS 4.0 22:27:49 10° NW 22:30:54 34° NNE 22:34:00 10° E
Cosmos 1300 3.6 22:28:04 10° N 22:31:43 41° ENE 22:33:33 24° SE
STARLINK-1245 3.6 22:28:07 10° WNW 22:32:12 59° SSW 22:34:26 25° SE
Cosmos 921 Rocket 3.9 22:31:52 26° SE 22:33:26 35° ESE 22:37:25 10° NE
In-Cosmos 22 4.2 22:30:05 22° SSW 22:33:28 68° WNW 22:38:47 10° N
YAOGAN 11 4.1 22:31:51 28° SSE 22:34:05 75° ENE 22:38:24 10° NNW
STARLINK-1138 3.7 22:30:21 10° WNW 22:34:30 77° N 22:38:40 10° E
Meteor 1-24 Rocket 4.1 22:33:05 24° SSE 22:35:57 48° E 22:41:13 10° NNE
STARLINK-1233 3.7 22:33:04 10° WNW 22:37:09 56° SSW 22:39:12 27° SE
Cosmos 2266 Rocket 4.2 22:33:43 21° SSW 22:37:55 65° WNW 22:43:57 10° N
CZ-4C R/B 4.0 22:36:20 11° SE 22:38:02 13° ESE 22:40:18 10° E
STARLINK-1371 4.5 22:39:09 27° SE 22:39:09 27° SE 22:42:02 10° E
STARLINK-1143 3.7 22:35:19 10° WNW 22:39:29 79° NNE 22:43:38 10° E
STARLINK-1363 4.5 22:41:47 22° ESE 22:41:47 22° ESE 22:43:24 10° E
Cosmos 1437 4.1 22:40:11 22° ESE 22:40:42 23° E 22:43:11 10° NE
STARLINK-1337 4.5 22:42:06 22° ESE 22:42:06 22° ESE 22:43:45 10° E
STARLINK-1342 4.5 22:42:25 22° ESE 22:42:25 22° ESE 22:44:04 10° E
STARLINK-1364 4.5 22:42:45 22° ESE 22:42:45 22° ESE 22:44:26 10° E
STARLINK-1376 4.4 22:43:04 22° ESE 22:43:04 22° ESE 22:44:45 10° E
STARLINK-1341 4.4 22:42:21 28° SE 22:42:21 28° SE 22:45:23 10° E
STARLINK-1204 3.7 22:38:04 10° WNW 22:42:07 53° SSW 22:43:59 28° SE
STARLINK-1360 4.4 22:43:23 23° ESE 22:43:23 23° ESE 22:45:06 10° E
STARLINK-1361 4.4 22:43:43 23° ESE 22:43:43 23° ESE 22:45:27 10° E
STARLINK-1367 4.4 22:44:00 23° ESE 22:44:00 23° ESE 22:45:48 10° E
STARLINK-1366 4.4 22:44:23 23° ESE 22:44:23 23° ESE 22:46:08 10° E
SJ 16-02 2.7 22:39:19 10° N 22:43:24 34° ENE 22:47:12 11° ESE
STARLINK-1241 3.7 22:40:20 10° WNW 22:44:30 81° NNE 22:48:40 10° E
STARLINK-1339 4.3 22:45:37 28° SE 22:45:37 28° SE 22:48:24 10° E
STARLINK-1374 4.3 22:45:33 30° SE 22:45:33 30° SE 22:48:45 10° E
STARLINK-1238 3.8 22:43:05 10° WNW 22:47:06 50° SSW 22:48:47 30° SSE
Helios 1B rocket 3.5 22:44:40 10° NNE 22:48:28 34° E 22:50:09 24° SE
STARLINK-1239 3.6 22:45:19 10° WNW 22:49:29 83° NNE 22:53:38 10° ESE
Cosmos 1674 3.0 22:48:20 30° SW 22:49:58 58° WNW 22:53:44 10° N
STARLINK-1201 3.8 22:48:04 10° WNW 22:52:03 47° SSW 22:53:33 31° SSE
STARLINK-1377 4.1 22:52:00 33° SSE 22:52:07 33° SE 22:55:33 10° E
STARLINK-1240 3.6 22:50:16 10° WNW 22:54:26 86° NNE 22:58:36 10° ESE
STARLINK-1353 4.0 22:55:17 34° SSE 22:55:30 34° SE 22:58:58 10° E
CZ-2D R/B 4.4 22:53:56 10° ENE 22:55:48 12° E 22:57:40 10° ESE
STARLINK-1206 3.9 22:53:04 10° WNW 22:57:02 44° SSW 22:58:21 32° SSE
STARLINK-60 3.0 22:53:54 10° W 22:57:06 76° NNW 23:00:18 10° ENE
USA 215 3.4 22:52:57 19° SSE 22:57:39 51° SW 23:04:01 10° WNW
COSMOS 2455 3.0 22:52:49 14° SW 22:58:08 72° NW 23:04:11 10° NE
Cosmos 2219 3.2 22:52:26 10° NNW 22:58:09 83° ENE 23:02:17 19° SSE
STARLINK-1375 3.9 22:58:33 35° SSE 22:58:54 36° SSE 23:02:24 10° E
STARLINK-1216 3.6 22:55:15 10° WNW 22:59:24 88° N 23:03:34 10° ESE
STARLINK-1203 3.6 22:55:19 10° WNW 22:59:33 89° NNE 23:03:46 10° ESE
STARLINK-1205 4.0 22:58:03 10° WNW 23:01:58 41° SSW 23:03:07 33° S
STARLINK-1352 3.8 23:01:56 36° SSE 23:02:09 36° SSE 23:05:32 10° E
STARLINK-1350 3.9 23:01:49 36° SSE 23:02:17 38° SSE 23:05:49 10° E
Cosmos 2297 Rocket 2.3 22:56:44 10° NNW 23:02:26 76° ENE 23:07:00 16° SE
Helios 1A 3.5 23:01:35 29° SSW 23:03:17 45° W 23:07:19 10° NNW
STARLINK-1237 3.5 23:00:14 10° WNW 23:04:24 89° SSW 23:08:33 10° ESE
PSLV R/B 4.1 23:01:22 10° NNE 23:05:48 51° E 23:07:53 28° SSE
Cosmos 1726 4.4 23:03:43 10° NW 23:05:49 15° W 23:07:20 12° WSW
Lacrosse 4 Rocket 2.9 23:02:11 10° NNW 23:06:17 38° NE 23:10:16 10° ESE
STARLINK-1218 4.1 23:03:04 10° WNW 23:06:56 39° SSW 23:07:55 33° S
STARLINK-1368 3.8 23:08:27 37° S 23:09:10 41° SSE 23:12:46 10° ENE
STARLINK-1202 3.5 23:05:13 10° WNW 23:09:23 86° SSW 23:13:32 10° ESE
Timation 2 Rocket 4.3 23:03:36 10° NW 23:09:38 48° WSW 23:12:54 25° S
ALOS 2 4.1 23:07:47 19° SW 23:09:38 25° W 23:13:17 10° NW
Cosmos 2058 Rocket 3.2 23:05:30 10° NNW 23:09:54 62° W 23:11:58 30° SSW
Cosmos 1455 4.0 23:06:57 10° NNE 23:10:07 25° ENE 23:12:54 12° ESE
STARLINK-1254 4.2 23:08:03 10° WNW 23:11:53 36° SW 23:12:41 33° S
Cosmos 2082 4.4 23:06:42 10° NNW 23:12:15 51° NE 23:17:44 10° SE
STARLINK-1369 3.7 23:11:47 37° S 23:12:38 43° SSE 23:16:15 10° ENE
Meteor 1-29 4.0 23:09:35 10° NNE 23:12:42 33° E 23:13:48 26° SE
Cosmos 1898 Rocket 4.1 23:07:33 10° NNW 23:12:51 58° ENE 23:17:35 13° SE
Cosmos 1626 Rocket 4.1 23:11:50 26° SSE 23:13:57 48° E 23:18:09 10° NNE
STARLINK-1372 3.7 23:15:07 36° SSW 23:16:06 45° SSE 23:19:46 10° ENE
STARLINK-1231 4.2 23:13:03 10° W 23:16:49 34° SW 23:17:27 32° SSW
Starlink 7 placeholder 3.1 23:17:57 38° NE 23:17:57 38° NE 23:19:28 10° ENE
Meteor 2-5 Rocket 3.9 23:14:12 23° SSW 23:17:40 66° WNW 23:23:19 10° N
ATLAS 3B R/B 3.6 23:12:11 10° WNW 23:18:01 31° WSW 23:21:10 22° SSW
SeaSat 1 3.9 23:14:35 10° NNE 23:19:02 34° NW 23:23:27 10° WSW
STARLINK-1246 3.5 23:15:12 10° WNW 23:19:21 80° SSW 23:23:30 10° ESE
STARLINK-1378 3.6 23:18:28 35° SSW 23:19:35 48° SSE 23:23:15 10° ENE
SL-14 R/B 3.2 23:19:11 33° SSW 23:20:49 73° WNW 23:24:41 10° N
STARLINK-1232 4.3 23:18:04 10° W 23:21:47 32° SW 23:22:14 31° SSW
FALCON 9 DEB 3.0 23:20:07 23° WSW 23:22:07 78° SSE 23:25:35 10° ENE
STARLINK-1379 3.6 23:21:51 34° SSW 23:23:06 50° SSE 23:26:47 10° ENE
STARLINK-1224 3.5 23:20:10 10° WNW 23:24:19 77° SSW 23:28:27 10° ESE
STARLINK-1329 3.6 23:23:14 33° SSW 23:24:33 51° SSE 23:28:15 10° ENE
SL-16 R/B 3.6 23:20:37 10° SE 23:26:21 43° ENE 23:32:08 10° N
STARLINK-1208 4.4 23:23:04 10° W 23:26:43 30° SW 23:27:00 30° SSW
STARLINK-29 3.0 23:24:02 12° W 23:26:59 79° NNW 23:30:11 10° ENE
STARLINK-1362 3.5 23:26:40 32° SSW 23:28:07 53° SSE 23:31:50 10° ENE
Cosmos-2242 4.5 23:24:57 10° N 23:28:47 31° ENE 23:32:30 10° SE
ATLAS CENTAUR R/B 1.2 23:26:36 10° WNW 23:28:53 56° SSW 23:33:18 10° SE
STARLINK-1225 3.5 23:25:10 10° WNW 23:29:18 73° SSW 23:33:26 10° ESE
Cosmos 1656 4.1 23:27:53 24° S 23:31:03 50° ESE 23:36:28 10° NE
STARLINK-1373 3.5 23:30:05 30° SW 23:31:41 55° SSE 23:35:26 10° ENE
NOSS 3-4 (A) 4.4 23:26:20 10° WSW 23:32:13 49° NNW 23:38:37 10° NE
NOSS 3-4 (C) 4.4 23:26:25 10° WSW 23:32:19 49° NNW 23:38:43 10° NE
RESURS DK-1 3.0 23:29:48 19° WSW 23:32:32 50° NW 23:36:36 10° NNE
STARLINK-1365 3.4 23:31:12 29° SW 23:32:55 58° SSE 23:36:42 10° ENE
STARLINK-1230 3.5 23:30:08 10° WNW 23:34:16 70° SSW 23:38:23 10° ESE
STARLINK-1390 3.4 23:33:35 29° SW 23:35:17 58° SSE 23:39:03 10° ENE
Cosmos 1697 Rocket 3.8 23:32:47 18° SSE 23:36:06 33° ESE 23:41:05 10° NE
Cosmos 1812 Rocket 3.6 23:31:42 10° N 23:36:12 78° ENE 23:38:55 23° SSE
Cosmos 2084 3.7 23:33:37 19° SW 23:36:46 75° NW 23:41:15 10° NE
Cosmos 1626 2.8 23:36:00 26° SW 23:37:40 44° WNW 23:41:16 10° N
BREEZE-M R/B 3.4 23:31:59 10° SW 23:38:09 46° SSE 23:41:27 10° E
Cosmos 990 Rocket 4.0 23:33:49 10° NNW 23:39:08 90° SW 23:43:10 17° SSE
STARLINK-1243 3.5 23:35:08 10° WNW 23:39:15 67° SSW 23:43:22 10° ESE
Cosmos 2227 Rocket 2.2 23:33:38 10° NNW 23:39:19 72° WSW 23:43:29 19° SSE
Okean 1-7 Rocket 4.3 23:37:39 23° SW 23:40:11 46° WNW 23:44:34 10° N
ATLAS CENTAUR R/B 3.0 23:36:56 10° W 23:40:45 31° NW 23:44:21 10° NNE
CZ-4 R/B 3.9 23:36:17 10° NNE 23:41:04 72° WNW 23:43:50 25° SSW
STARLINK-1236 3.5 23:40:06 10° WNW 23:44:12 63° SSW 23:48:18 10° SE
Alouette 2 Rocket 4.2 23:41:33 10° NNW 23:47:27 65° ENE 23:50:43 16° SSE
Cosmos 1709 Rocket 4.3 23:44:10 18° SSE 23:48:37 58° E 23:54:40 10° NNE
Cosmos 1602 Rocket 3.5 23:47:23 27° S 23:49:44 84° E 23:54:05 10° NNE
SL-08 ROCKET BODY 4.3 23:46:46 23° SSW 23:50:36 85° W 23:56:30 10° N
Cosmos 2285 Rocket 4.2 23:46:34 10° NNW 23:52:59 75° ENE 23:59:18 10° SSE
STARLINK-1269 3.6 23:50:05 10° WNW 23:54:09 57° SSW 23:58:13 10° SE
